| time (UTC) | temp F | wind direction | speed knots | gust knots | rain 1hr in | rain 24hr in | rain mn in | humidity % | barometer mb |
| 20260905223110 | 56 | 304 | 2.6 | 7.0 | 0.00 | 0.22 | 0.00 | 88 | 1012.6 |
| 20260905222052 | 56 | 31 | 0.9 | 2.6 | 0.00 | 0.22 | 0.00 | 88 | 1012.7 |
| 20260905221109 | 56 | 320 | 1.7 | 4.3 | 0.00 | 0.22 | 0.00 | 88 | 1012.5 |
| 20260905220044 | 56 | 294 | 0.9 | 3.5 | 0.00 | 0.22 | 0.00 | 88 | 1012.5 |
| 20260905215107 | 56 | 270 | 2.6 | 7.0 | 0.00 | 0.22 | 0.22 | 88 | 1012.5 |
| 20260905214036 | 56 | 330 | 1.7 | 3.5 | 0.00 | 0.22 | 0.22 | 88 | 1012.4 |
| 20260905213047 | 56 | 89 | 1.7 | 3.5 | 0.00 | 0.22 | 0.22 | 88 | 1012.3 |
| 20260905212041 | 56 | 270 | 1.7 | 3.5 | 0.00 | 0.22 | 0.22 | 88 | 1012.3 |
| 20260905211031 | 56 | 291 | 1.7 | 3.5 | 0.00 | 0.22 | 0.22 | 88 | 1012.2 |
| 20260905210034 | 56 | 266 | 1.7 | 3.5 | 0.00 | 0.22 | 0.22 | 88 | 1012.1 |
| 20260905205020 | 56 | 267 | 1.7 | 4.3 | 0.00 | 0.22 | 0.22 | 88 | 1012.1 |
| 20260905204021 | 56 | 310 | 0.9 | 2.6 | 0.00 | 0.22 | 0.22 | 88 | 1012.0 |
| 20260905203129 | 56 | 25 | 2.6 | 4.3 | 0.00 | 0.22 | 0.22 | 89 | 1011.9 |
| 20260905202141 | 56 | 283 | 2.6 | 4.3 | 0.00 | 0.22 | 0.22 | 89 | 1011.9 |
| 20260905201108 | 56 | 329 | 2.6 | 7.8 | 0.00 | 0.22 | 0.22 | 89 | 1011.7 |
| 20260905195113 | 56 | 23 | 1.7 | 4.3 | 0.00 | 0.22 | 0.22 | 89 | 1011.7 |
| 20260905194100 | 56 | 340 | 1.7 | 4.3 | 0.00 | 0.22 | 0.22 | 89 | 1011.7 |
| 20260905193058 | 56 | 279 | 1.7 | 4.3 | 0.00 | 0.22 | 0.22 | 89 | 1011.6 |
| 20260905192052 | 56 | 340 | 1.7 | 7.0 | 0.00 | 0.22 | 0.22 | 89 | 1011.6 |
| 20260905191052 | 56 | 244 | 1.7 | 3.5 | 0.00 | 0.22 | 0.22 | 89 | 1011.6 |
| 20260905190043 | 57 | 297 | 1.7 | 3.5 | 0.00 | 0.22 | 0.22 | 90 | 1011.4 |
| 20260905185124 | 57 | 13 | 2.6 | 5.2 | 0.00 | 0.22 | 0.22 | 90 | 1011.4 |
| 20260905184040 | 57 | 346 | 3.5 | 7.0 | 0.00 | 0.22 | 0.22 | 90 | 1011.4 |
| 20260905183042 | 57 | 306 | 2.6 | 7.0 | 0.00 | 0.22 | 0.22 | 90 | 1011.2 |
| 20260905182038 | 57 | 316 | 3.5 | 8.7 | 0.00 | 0.22 | 0.22 | 90 | 1011.0 |
| 20260905181100 | 57 | 204 | 3.5 | 6.1 | 0.01 | 0.24 | 0.22 | 90 | 1010.9 |
| 20260905180023 | 57 | 9 | 2.6 | 6.1 | 0.02 | 0.24 | 0.22 | 90 | 1010.8 |
| 20260905175051 | 57 | 348 | 2.6 | 7.8 | 0.06 | 0.24 | 0.22 | 90 | 1010.7 |
| 20260905174119 | 57 | 326 | 3.5 | 6.1 | 0.17 | 0.24 | 0.22 | 90 | 1010.8 |
| 20260905173110 | 57 | 352 | 3.5 | 7.0 | 0.19 | 0.24 | 0.22 | 90 | 1010.9 |
| 20260905172107 | 57 | 304 | 3.5 | 7.0 | 0.22 | 0.24 | 0.22 | 89 | 1011.0 |
| 20260905171105 | 57 | 323 | 2.6 | 5.2 | 0.21 | 0.26 | 0.21 | 88 | 1011.1 |
| 20260905170101 | 58 | 324 | 4.3 | 10.4 | 0.20 | 0.31 | 0.20 | 86 | 1011.2 |
| 20260905165126 | 59 | 327 | 5.2 | 14.8 | 0.17 | 0.27 | 0.17 | 83 | 1011.3 |
| 20260905164056 | 60 | 334 | 5.2 | 8.7 | 0.06 | 0.17 | 0.06 | 78 | 1010.6 |
| 20260905163054 | 63 | 355 | 7.8 | 13.9 | 0.04 | 0.14 | 0.04 | 72 | 1010.3 |
| 20260905162127 | 65 | 16 | 1.7 | 2.6 | 0.00 | 0.11 | 0.00 | 68 | 1009.6 |
| 20260905161105 | 65 | 0 | 0.0 | 1.7 | 0.00 | 0.11 | 0.00 | 66 | 1009.3 |
| 20260905160040 | 66 | 350 | 0.9 | 2.6 | 0.00 | 0.11 | 0.00 | 65 | 1008.9 |
| 20260905155057 | 66 | 351 | 0.9 | 2.6 | 0.00 | 0.11 | 0.00 | 62 | 1009.0 |
| 20260905154033 | 67 | 6 | 2.6 | 4.3 | 0.00 | 0.11 | 0.00 | 60 | 1008.9 |
| 20260905153030 | 68 | 288 | 1.7 | 3.5 | 0.00 | 0.11 | 0.00 | 59 | 1008.9 |
| 20260905152025 | 67 | 264 | 0.9 | 3.5 | 0.00 | 0.11 | 0.00 | 59 | 1008.9 |
| 20260905151021 | 66 | 6 | 0.9 | 3.5 | 0.00 | 0.11 | 0.00 | 61 | 1008.7 |
| 20260905150019 | 66 | 311 | 1.7 | 3.5 | 0.00 | 0.11 | 0.00 | 67 | 1008.9 |
| 20260905145136 | 63 | 281 | 1.7 | 3.5 | 0.00 | 0.11 | 0.00 | 71 | 1009.1 |
| 20260905144110 | 64 | 326 | 4.3 | 11.3 | 0.00 | 0.11 | 0.00 | 64 | 1009.4 |
| 20260905143113 | 69 | 349 | 6.1 | 13.0 | 0.00 | 0.11 | 0.00 | 50 | 1009.2 |
| 20260905142108 | 69 | 340 | 4.3 | 9.6 | 0.00 | 0.11 | 0.00 | 48 | 1008.6 |
| 20260905141105 | 70 | 249 | 3.5 | 8.7 | 0.00 | 0.11 | 0.00 | 47 | 1008.7 |
| 20260905135056 | 73 | 175 | 5.2 | 14.8 | 0.00 | 0.11 | 0.00 | 41 | 1008.5 |
| 20260905134052 | 71 | 266 | 5.2 | 8.7 | 0.00 | 0.11 | 0.00 | 46 | 1008.5 |
| 20260905133049 | 70 | 311 | 5.2 | 9.6 | 0.00 | 0.11 | 0.00 | 45 | 1008.7 |
| 20260905132042 | 71 | 318 | 3.5 | 8.7 | 0.00 | 0.11 | 0.00 | 43 | 1008.5 |
| 20260905131041 | 71 | 359 | 2.6 | 5.2 | 0.00 | 0.11 | 0.00 | 42 | 1008.4 |
| 20260905130037 | 72 | 331 | 5.2 | 13.0 | 0.00 | 0.11 | 0.00 | 39 | 1008.4 |
| 20260905125033 | 75 | 314 | 5.2 | 12.2 | 0.00 | 0.11 | 0.00 | 37 | 1008.3 |
| 20260905124118 | 74 | 299 | 4.3 | 13.0 | 0.00 | 0.11 | 0.00 | 38 | 1008.2 |
| 20260905123025 | 72 | 359 | 7.0 | 14.8 | 0.00 | 0.11 | 0.00 | 40 | 1008.4 |
| 20260905122103 | 71 | 353 | 6.1 | 9.6 | 0.00 | 0.11 | 0.00 | 43 | 1008.4 |
| 20260905121018 | 72 | 322 | 7.0 | 13.0 | 0.00 | 0.11 | 0.00 | 42 | 1008.5 |
| 20260905120115 | 74 | 213 | 4.3 | 7.0 | 0.00 | 0.11 | 0.00 | 41 | 1008.6 |
| 20260905115114 | 73 | 331 | 5.2 | 9.6 | 0.00 | 0.11 | 0.00 | 42 | 1008.5 |
| 20260905114109 | 73 | 258 | 4.3 | 8.7 | 0.00 | 0.11 | 0.00 | 43 | 1008.4 |
| 20260905113113 | 70 | 4 | 4.3 | 6.1 | 0.00 | 0.11 | 0.00 | 51 | 1008.4 |
| 20260905112120 | 70 | 332 | 4.3 | 8.7 | 0.00 | 0.11 | 0.00 | 51 | 1008.7 |
| 20260905111100 | 70 | 19 | 4.3 | 7.0 | 0.00 | 0.11 | 0.00 | 50 | 1008.6 |
| 20260905110054 | 71 | 295 | 5.2 | 13.0 | 0.00 | 0.11 | 0.00 | 48 | 1008.4 |
| 20260905105054 | 72 | 330 | 3.5 | 8.7 | 0.00 | 0.11 | 0.00 | 48 | 1008.6 |
| 20260905104154 | 73 | 329 | 4.3 | 9.6 | 0.00 | 0.11 | 0.00 | 44 | 1008.5 |
| 20260905103046 | 72 | 312 | 6.1 | 11.3 | 0.00 | 0.11 | 0.00 | 49 | 1008.5 |
| 20260905102040 | 70 | 41 | 4.3 | 8.7 | 0.00 | 0.11 | 0.00 | 51 | 1008.4 |
| 20260905101036 | 70 | 338 | 5.2 | 9.6 | 0.00 | 0.11 | 0.00 | 50 | 1008.3 |
| 20260905100039 | 70 | 292 | 4.3 | 7.8 | 0.00 | 0.11 | 0.00 | 50 | 1008.2 |
| 20260905095036 | 70 | 275 | 4.3 | 7.0 | 0.00 | 0.11 | 0.00 | 50 | 1008.1 |
| 20260905094030 | 71 | 315 | 4.3 | 7.0 | 0.00 | 0.11 | 0.00 | 51 | 1008.2 |
| 20260905093021 | 70 | 321 | 6.1 | 11.3 | 0.00 | 0.11 | 0.00 | 51 | 1008.2 |
| 20260905092017 | 69 | 331 | 5.2 | 9.6 | 0.00 | 0.11 | 0.00 | 52 | 1008.1 |
| 20260905091138 | 69 | 316 | 5.2 | 8.7 | 0.00 | 0.11 | 0.00 | 52 | 1008.1 |
| 20260905090134 | 70 | 270 | 4.3 | 7.8 | 0.00 | 0.11 | 0.00 | 53 | 1008.0 |
| 20260905085119 | 69 | 330 | 5.2 | 11.3 | 0.00 | 0.11 | 0.00 | 54 | 1008.1 |
| 20260905084110 | 68 | 333 | 3.5 | 8.7 | 0.00 | 0.11 | 0.00 | 60 | 1008.0 |
| 20260905083143 | 67 | 317 | 4.3 | 7.8 | 0.00 | 0.11 | 0.00 | 60 | 1008.0 |
| 20260905082137 | 67 | 322 | 5.2 | 10.4 | 0.00 | 0.11 | 0.00 | 62 | 1007.8 |
| 20260905080056 | 66 | 323 | 6.1 | 8.7 | 0.00 | 0.11 | 0.00 | 61 | 1007.8 |
| 20260905075047 | 66 | 260 | 4.3 | 7.0 | 0.00 | 0.11 | 0.00 | 62 | 1007.6 |
| 20260905074105 | 66 | 338 | 4.3 | 10.4 | 0.00 | 0.11 | 0.00 | 62 | 1007.5 |
| 20260905073045 | 66 | 307 | 5.2 | 9.6 | 0.00 | 0.11 | 0.00 | 63 | 1007.5 |
| 20260905072054 | 65 | 314 | 2.6 | 7.0 | 0.00 | 0.11 | 0.00 | 65 | 1007.4 |
| 20260905071054 | 64 | 330 | 5.2 | 8.7 | 0.00 | 0.11 | 0.00 | 66 | 1007.4 |
| 20260905070035 | 63 | 4 | 6.1 | 13.0 | 0.00 | 0.11 | 0.00 | 70 | 1007.4 |
| 20260905065030 | 64 | 248 | 4.3 | 8.7 | 0.00 | 0.11 | 0.00 | 67 | 1007.2 |
| 20260905064032 | 63 | 294 | 3.5 | 7.0 | 0.00 | 0.11 | 0.00 | 71 | 1007.1 |
| 20260905063028 | 64 | 350 | 5.2 | 8.7 | 0.00 | 0.11 | 0.00 | 69 | 1007.1 |
| 20260905062118 | 63 | 327 | 3.5 | 7.0 | 0.00 | 0.11 | 0.00 | 73 | 1007.0 |
| 20260905061117 | 63 | 317 | 3.5 | 7.0 | 0.00 | 0.11 | 0.00 | 72 | 1006.9 |
| 20260905060107 | 64 | 293 | 4.3 | 7.0 | 0.00 | 0.11 | 0.00 | 70 | 1006.8 |
| 20260905055124 | 63 | 281 | 3.5 | 7.8 | 0.00 | 0.11 | 0.00 | 76 | 1006.7 |
| 20260905054227 | 62 | 337 | 3.5 | 6.1 | 0.00 | 0.11 | 0.00 | 76 | 1006.6 |
| 20260905053116 | 62 | 346 | 4.3 | 9.6 | 0.00 | 0.11 | 0.00 | 78 | 1006.4 |
| 20260905052138 | 61 | 297 | 2.6 | 6.1 | 0.00 | 0.11 | 0.00 | 78 | 1006.3 |
| 20260905051050 | 61 | 265 | 3.5 | 6.1 | 0.00 | 0.11 | 0.00 | 78 | 1006.2 |
| 20260905050113 | 61 | 291 | 1.7 | 3.5 | 0.00 | 0.11 | 0.00 | 78 | 1006.1 |
| 20260905045042 | 61 | 332 | 2.6 | 4.3 | 0.00 | 0.11 | 0.00 | 79 | 1006.0 |
| 20260905044037 | 60 | 321 | 1.7 | 5.2 | 0.00 | 0.11 | 0.00 | 79 | 1006.0 |
| 20260905043036 | 60 | 349 | 3.5 | 7.8 | 0.00 | 0.11 | 0.00 | 79 | 1005.9 |
| 20260905042030 | 60 | 312 | 2.6 | 6.1 | 0.00 | 0.11 | 0.00 | 80 | 1005.9 |
| 20260905041027 | 60 | 20 | 3.5 | 7.8 | 0.00 | 0.11 | 0.00 | 80 | 1005.8 |
| 20260905040025 | 61 | 272 | 3.5 | 6.1 | 0.00 | 0.11 | 0.00 | 80 | 1005.7 |
| 20260905035020 | 61 | 348 | 2.6 | 6.1 | 0.00 | 0.11 | 0.00 | 79 | 1005.5 |
| 20260905034018 | 61 | 299 | 4.3 | 7.0 | 0.00 | 0.11 | 0.00 | 79 | 1005.4 |
| 20260905033115 | 61 | 242 | 2.6 | 6.1 | 0.00 | 0.11 | 0.00 | 78 | 1005.2 |
| 20260905032110 | 61 | 324 | 2.6 | 4.3 | 0.00 | 0.11 | 0.00 | 78 | 1005.0 |
| 20260905031105 | 62 | 299 | 4.3 | 8.7 | 0.00 | 0.11 | 0.00 | 77 | 1004.9 |
| 20260905025058 | 62 | 332 | 3.5 | 7.0 | 0.00 | 0.11 | 0.00 | 79 | 1004.6 |
| 20260905024059 | 62 | 335 | 4.3 | 7.0 | 0.00 | 0.11 | 0.00 | 78 | 1004.7 |
| 20260905023054 | 62 | 333 | 3.5 | 7.0 | 0.00 | 0.11 | 0.00 | 78 | 1004.6 |
| 20260905022048 | 62 | 339 | 4.3 | 7.0 | 0.00 | 0.11 | 0.00 | 78 | 1004.5 |
| 20260905021045 | 62 | 283 | 4.3 | 7.0 | 0.00 | 0.11 | 0.00 | 78 | 1004.1 |
| 20260905020040 | 62 | 343 | 4.3 | 9.6 | 0.00 | 0.11 | 0.00 | 78 | 1004.3 |
| 20260905015036 | 63 | 319 | 4.3 | 8.7 | 0.00 | 0.11 | 0.00 | 78 | 1004.3 |
| 20260905014056 | 63 | 7 | 2.6 | 7.0 | 0.00 | 0.11 | 0.00 | 78 | 1004.2 |
| 20260905013031 | 63 | 308 | 3.5 | 7.0 | 0.00 | 0.11 | 0.00 | 78 | 1004.0 |
| 20260905012037 | 63 | 350 | 3.5 | 7.8 | 0.00 | 0.11 | 0.00 | 79 | 1004.0 |
| 20260905011025 | 63 | 40 | 4.3 | 9.6 | 0.00 | 0.11 | 0.00 | 79 | 1003.9 |
| 20260905010019 | 63 | 301 | 4.3 | 7.0 | 0.00 | 0.11 | 0.00 | 80 | 1003.9 |
| 20260905005115 | 63 | 323 | 4.3 | 7.0 | 0.00 | 0.11 | 0.00 | 80 | 1004.0 |
| 20260905004111 | 63 | 273 | 3.5 | 4.3 | 0.00 | 0.11 | 0.00 | 81 | 1004.0 |
| 20260905003110 | 63 | 291 | 3.5 | 7.0 | 0.00 | 0.11 | 0.00 | 83 | 1003.9 |
| 20260905002126 | 63 | 309 | 3.5 | 7.0 | 0.00 | 0.11 | 0.00 | 84 | 1003.8 |
| 20260905001103 | 62 | 321 | 4.3 | 7.8 | 0.00 | 0.11 | 0.00 | 85 | 1003.2 |
| 20260905000057 | 62 | 344 | 3.5 | 4.3 | 0.00 | 0.11 | 0.00 | 85 | 1003.1 |
| 20260904235053 | 62 | 289 | 2.6 | 6.1 | 0.00 | 0.11 | 0.00 | 85 | 1003.5 |
| 20260904234110 | 62 | 321 | 2.6 | 7.0 | 0.00 | 0.11 | 0.00 | 85 | 1003.5 |
| 20260904233106 | 62 | 282 | 3.5 | 7.0 | 0.00 | 0.11 | 0.00 | 85 | 1003.5 |
| 20260904232042 | 62 | 358 | 2.6 | 7.0 | 0.00 | 0.11 | 0.00 | 85 | 1003.5 |
| 20260904231059 | 62 | 302 | 2.6 | 7.0 | 0.00 | 0.11 | 0.00 | 85 | 1003.3 |
| 20260904230035 | 62 | 41 | 3.5 | 6.1 | 0.00 | 0.11 | 0.00 | 86 | 1003.1 |
| 20260904225031 | 62 | 336 | 3.5 | 6.1 | 0.00 | 0.11 | 0.00 | 86 | 1002.9 |
| 20260904224031 | 62 | 298 | 3.5 | 7.0 | 0.00 | 0.11 | 0.00 | 86 | 1002.5 |